Air Resources Laboratory banner image
Air Resources Laboratory web site National Oceanic and Atmospheric Administration (NOAA)

wi roundup


Office: GRB

ASUS43 KGRB 221001
RWRGRB

NORTH-CENTRAL AND NORTHEAST WISCONSIN REGIONAL WEATHER ROUNDUP
NATIONAL WEATHER SERVICE GREEN BAY WI
500 AM CDT SUN JUL 22 2018

WIZ005-009-010>012-018-019-221100-
NORTH CENTRAL WISCONSIN

CITY           SKY/WX    TMP DP  RH WIND       PRES   REMARKS
IRONWOOD       CLOUDY    56  55  97 N3        30.12S
MANITOWISH WTR CLOUDY    57  57 100 N3        30.09S FOG
ARBOR VITAE    NOT AVBL
EAGLE RIVER    CLOUDY    60  58  96 N10       30.06S
LAND O LAKES   CLOUDY    59  58  97 N8        30.09S FOG
RHINELANDER    MOCLDY    63  59  87 N7        30.05F
PHILLIPS       CLOUDY    59  59 100 N8        30.08F
ANTIGO         CLOUDY    61  59  93 N9        30.02S
TOMAHAWK       CLOUDY    61  57  88 NW6       30.06S
MERRILL        CLOUDY    63  60  91 N6        30.04S
$$

WIZ013-073-221100-
NORTHEAST WISCONSIN

CITY           SKY/WX    TMP DP  RH WIND       PRES   REMARKS
IRON MOUNTAIN  CLOUDY    63  60  90 N13       30.01S
MARINETTE      LGT RAIN  63  62  97 N12       29.96R FOG
$$

WIZ017-030-035>037-045-221100-
CENTRAL WISCONSIN

CITY           SKY/WX    TMP DP  RH WIND       PRES   REMARKS
MEDFORD        MOCLDY    58  56  94 N7        30.04F
WAUSAU         FAIR      63  58  83 N7G17     30.00S
MOSINEE        NOT AVBL
MARSHFIELD     CLOUDY    62  59  90 N9        30.02S
WISC RAPIDS    MOCLDY    63  58  83 N8        30.01R
STEVENS POINT  NOT AVBL
WAUPACA        CLOUDY    67  63  86 N7        29.96S
SHAWANO        CLOUDY    67  62  83 N10       29.95S
CLINTONVILLE   CLOUDY    66  59  80 N7        29.96S
WAUTOMA        CLOUDY    66  61  84 N9        29.96F
$$

WIZ038-039-048-051-221100-
FOX VALLEY

CITY           SKY/WX    TMP DP  RH WIND       PRES   REMARKS
NWS GREEN BAY  CLOUDY    65  62  90 N16       29.92F
APPLETON       CLOUDY    63  63 100 N13G21    29.93R
OSHKOSH        CLOUDY    65  63  93 N12       29.92S
FOND DU LAC    CLOUDY    67  63  87 N15       29.92R
$$

WIZ022-050-052-221100-
EAST CENTRAL WISCONSIN

CITY           SKY/WX    TMP DP  RH WIND       PRES   REMARKS
EPHRAIM        CLOUDY    62  61  98 N12       29.94R FOG
WASHINGTON ISL NOT AVBL
STURGEON BAY   LGT RAIN  64  63  96 N15G22    29.94R
MANITOWOC      LGT RAIN  65  64  97 N9        29.90S
SHEBOYGAN      LGT RAIN  66  64  93 N9        29.88S FOG
$$

LMZ563-521-522-541>543-221100-
LAKESHORE

STATION/POSITION TIME  TEMP    WIND        PRES    VSBY  WAVE
                       AIR SEA DIR/SP/G                  HT/PER
                 (UTC) (F)     (DEG/KT/KT) (MB)    (MI)  (FT/S)
SHEBOYGAN LKSHOR 0900   65     350/ 17/ 19 1011.3F
KEWAUNEE LKSHORE 0924   65     350/  7/ 13 1012.1
NORTHPORT PIER   0940   61     350/  8/ 10 1014.2R
N MID LAKE BUOY  0940   67 66   20/ 16/ 19 1012.6F
S GREEN BAY BUOY 0930   71 71   20/ 19/ 23 1013.4F
SISTER BAY LKSHO 0921   64      40/ 12/ 17   N/A
MENOMINEE LKSHOR 0924   65     350/ 17/ 20 1013.4
$$


ASUS43 KGRB 221011
RWRGRB

NORTH-CENTRAL AND NORTHEAST WISCONSIN REGIONAL WEATHER ROUNDUP
NATIONAL WEATHER SERVICE GREEN BAY WI
500 AM CDT SUN JUL 22 2018

WIZ005-009-010>012-018-019-221100-
NORTH CENTRAL WISCONSIN

CITY           SKY/WX    TMP DP  RH WIND       PRES   REMARKS
IRONWOOD       CLOUDY    56  55  97 N3        30.12S
MANITOWISH WTR CLOUDY    57  57 100 N3        30.09S FOG
ARBOR VITAE    CLOUDY    62  60  93 N9        30.08R
EAGLE RIVER    CLOUDY    60  58  96 N10       30.06S
LAND O LAKES   CLOUDY    59  58  97 N8        30.09S FOG
RHINELANDER    MOCLDY    63  59  87 N7        30.05F
PHILLIPS       CLOUDY    59  59 100 N8        30.08F
ANTIGO         CLOUDY    61  59  93 N9        30.02S
TOMAHAWK       CLOUDY    61  57  88 NW6       30.06S
MERRILL        CLOUDY    63  60  91 N6        30.04S
$$

WIZ013-073-221100-
NORTHEAST WISCONSIN

CITY           SKY/WX    TMP DP  RH WIND       PRES   REMARKS
IRON MOUNTAIN  CLOUDY    63  60  90 N13       30.01S
MARINETTE      LGT RAIN  63  63 100 N10       29.96R FOG
OCONTO         CLOUDY    63  62  95 N9        29.94S
$$

WIZ017-030-035>037-045-221100-
CENTRAL WISCONSIN

CITY           SKY/WX    TMP DP  RH WIND       PRES   REMARKS
MEDFORD        MOCLDY    58  56  94 N7        30.04F
WAUSAU         FAIR      63  58  83 N7G17     30.00S
MOSINEE        CLOUDY    61  59  94 N10       30.02R
MARSHFIELD     CLOUDY    62  59  90 N9        30.02S
WISC RAPIDS    MOCLDY    63  58  83 N8        30.01R
STEVENS POINT  CLOUDY    61  60  96 N6        30.00S
WAUPACA        CLOUDY    67  63  86 N7        29.96S
SHAWANO        CLOUDY    67  62  83 N10       29.95S
CLINTONVILLE   CLOUDY    66  59  80 N7        29.96S
WAUTOMA        CLOUDY    66  61  84 N9        29.96F
$$

WIZ038-039-048-051-221100-
FOX VALLEY

CITY           SKY/WX    TMP DP  RH WIND       PRES   REMARKS
NWS GREEN BAY  CLOUDY    65  62  90 N16       29.92F
APPLETON       CLOUDY    63  63 100 N13G21    29.93R
OSHKOSH        CLOUDY    65  63  93 N12       29.92S
FOND DU LAC    CLOUDY    67  63  87 N15       29.92R
$$

WIZ022-050-052-221100-
EAST CENTRAL WISCONSIN

CITY           SKY/WX    TMP DP  RH WIND       PRES   REMARKS
EPHRAIM        CLOUDY    62  61  98 N12       29.94R FOG
WASHINGTON ISL CLOUDY    61  61  99 N12       29.95R
STURGEON BAY   LGT RAIN  64  63  96 N15G22    29.94R
MANITOWOC      LGT RAIN  65  64  97 N9        29.90S
SHEBOYGAN      LGT RAIN  66  64  93 N9        29.88S FOG
$$

LMZ563-521-522-541>543-221100-
LAKESHORE

STATION/POSITION TIME  TEMP    WIND        PRES    VSBY  WAVE
                       AIR SEA DIR/SP/G                  HT/PER
                 (UTC) (F)     (DEG/KT/KT) (MB)    (MI)  (FT/S)
SHEBOYGAN LKSHOR 1000   65      10/ 18/ 19 1011.4R
KEWAUNEE LKSHORE 0942   65     360/  8/ 16 1012.1R
NORTHPORT PIER   0940   61     350/  8/ 10 1014.2R
N MID LAKE BUOY  0950   67 66   20/ 16/ 19 1012.0F         3/ 4
S GREEN BAY BUOY 1000   71 71   10/ 17/ 21 1013.5
SISTER BAY LKSHO 0921   64      40/ 12/ 17   N/A
MENOMINEE LKSHOR 0936   65     340/ 18/ 21 1013.5F
$$




Office: MKX ASUS43 KMKX 221000 RWRWI WISCONSIN REGIONAL WEATHER ROUNDUP NATIONAL WEATHER SERVICE MILWAUKEE/SULLIVAN WI 500 AM CDT SUN JUL 22 2018 NOTE: "FAIR" INDICATES FEW OR NO CLOUDS BELOW 12,000 FEET WITH NO SIGNIFICANT WEATHER AND/OR OBSTRUCTIONS TO VISIBILITY. WIZ001-002-006>008-014>016-023>028-221100- NORTHWEST WISCONSIN CITY SKY/WX TMP DP RH WIND PRES REMARKS SUPERIOR ARPT CLOUDY 61 58 91 NE3 30.12S ASHLAND CLOUDY 61 58 90 NE7 30.12S HAYWARD CLOUDY 61 59 93 N8 30.11S SIREN CLOUDY 63 58 84 CALM 30.10F CUMBERLAND CLOUDY 61 55 82 NE5 30.09F RICE LAKE CLOUDY 62 58 86 NE7 30.10F CHETEK CLOUDY 62 58 88 NE5 30.09S LADYSMITH MOCLDY 60 57 91 N5 30.09F EAU CLAIRE NOT AVBL MENOMONIE CLOUDY 62 58 86 NE7 30.07F NEW RICHMOND FAIR 59 58 96 NE5 30.09S OSCEOLA MOCLDY 61 59 92 N3 30.12R $$ WIZ003>005-009-010-017-018-221100- NORTH CENTRAL WISCONSIN CITY SKY/WX TMP DP RH WIND PRES REMARKS MANITOWISH WTR CLOUDY 57 57 100 N3 30.09S FOG ARBOR VITAE CLOUDY 62 60 93 N7 30.08R WOODRUFF CLOUDY 62 60 93 N7 30.08R RHINELANDER MOCLDY 63 59 87 N7 30.05F EAGLE RIVER CLOUDY 60 58 96 N10 30.06S LAND O LAKES CLOUDY 59 58 97 N8 30.09S FOG PHILLIPS CLOUDY 59 59 100 N8 30.08F TOMAHAWK CLOUDY 61 57 88 NW6 30.06S MEDFORD MOCLDY 58 56 94 N7 30.04F MERRILL CLOUDY 63 60 91 N6 30.04S $$ WIZ029-030-035-036-043>047-221100- CENTRAL WISCONSIN CITY SKY/WX TMP DP RH WIND PRES REMARKS WAUSAU FAIR 63 58 83 N7G17 30.00S MOSINEE CLOUDY 61 59 94 N9 30.01F MARSHFIELD CLOUDY 62 59 90 N9 30.02S STEVENS POINT CLOUDY 61 59 95 N7 29.99F WAUPACA CLOUDY 67 63 86 N7 29.96S WAUTOMA CLOUDY 66 61 84 N9 29.96F WISC RAPIDS MOCLDY 63 58 83 N8 30.01R CAMP DOUGLAS FAIR 61 61 99 NW6 30.00R $$ WIZ011>013-019>022-031-037>040-048>050-221100- NORTHEAST WISCONSIN CITY SKY/WX TMP DP RH WIND PRES REMARKS ANTIGO CLOUDY 61 59 93 N9 30.02S SHAWANO CLOUDY 67 62 83 N10 29.95S OCONTO CLOUDY 63 62 95 N7 29.94S STURGEON BAY LGT RAIN 64 63 96 N15G22 29.94R GREEN BAY CLOUDY 65 62 90 N16 29.92F MANITOWOC LGT RAIN 65 64 97 N9 29.90S APPLETON CLOUDY 63 63 100 N13G21 29.93R CLINTONVILLE CLOUDY 66 59 80 N7 29.96S OSHKOSH CLOUDY 65 63 93 N12 29.92S $$ WIZ032>034-041-042-053>061-221100- SOUTHWEST WISCONSIN CITY SKY/WX TMP DP RH WIND PRES REMARKS LA CROSSE MOCLDY 64 60 87 N10 30.01S SPARTA CLOUDY 59 57 94 N7 30.02S VIROQUA CLOUDY 62 61 98 N8 30.01S BOSCOBEL CLOUDY 68 61 78 VRB3 29.97R PRAIRIE DU CHI CLOUDY 67 59 75 N9 29.97S PLATTEVILLE CLOUDY 65 65 99 N10 29.96R $$ WIZ056-057-062-063-064-067-068-221100- SOUTH CENTRAL WISCONSIN CITY SKY/WX TMP DP RH WIND PRES REMARKS REEDSBURG CLOUDY 64 63 97 N10 29.97R BARABOO/DELLS CLOUDY 64 59 86 NW7 29.96S LONE ROCK NOT AVBL MINERAL POINT CLOUDY 64 64 100 N8 29.96R MADISON CLOUDY 66 63 90 N14G22 29.92F MIDDLETON CLOUDY 67 63 88 N8 29.94S WATERTOWN LGT RAIN 65 65 100 N12 29.90S MONROE CLOUDY 65 64 94 N9 29.93R JANESVILLE CLOUDY 68 66 94 N9 29.89S $$ WIZ051-052-058>065-066-070>072-221100- SOUTHEAST WISCONSIN CITY SKY/WX TMP DP RH WIND PRES REMARKS MILWAUKEE LGT RAIN 68 66 93 N16G26 29.85S WAUKESHA CLOUDY 64 63 94 N8 29.89R MILWAUKEE/TIMM CLOUDY 64 61 88 N16G23 29.87S HAZE RACINE CLOUDY 67 66 97 N16G29 29.86R BURLINGTON CLOUDY 67 64 89 N8 29.86S KENOSHA CLOUDY 68 67 96 N10G22 29.85R FOND DU LAC CLOUDY 67 63 87 N15 29.92R SHEBOYGAN LGT RAIN 66 64 93 N9 29.88S FOG WEST BEND CLOUDY 64 64 100 N9 29.88S JUNEAU CLOUDY 64 63 96 NW9 29.92S FOG $$ LSZ147-162-221100- LAKE SUPERIOR STATION/POSITION TIME TEMP WIND PRES WAVE AIR SEA DIR/SP/G HT/PER (UTC) (F) (DEG/KT/KT) (MB) (FT/S) W MID LAKE BUOY 0850 49 44 350/ 6/ 8 1019.7S 1/ 4 DEVILS ISLAND 0900 62 30/ 11/ 11 1019.9F SAXON HARBOR 0940 62 50/ 12/ 14 1019.0F $$ LMZ867-665-643>646-221100- LAKE MICHIGAN STATION/POSITION TIME TEMP WIND PRES WAVE AIR SEA DIR/SP/G HT/PER (UTC) (F) (DEG/KT/KT) (MB) (FT/S) S GREEN BAY BUOY 0930 71 71 20/ 19/ 23 1013.4F N MID LAKE BUOY 0940 67 66 20/ 16/ 19 1012.6F NORTHPORT PIER 0940 61 350/ 8/ 10 1014.2R KEWAUNEE LAKESHO 0924 65 350/ 7/ 13 1012.1 SHEBOYGAN LAKESH 0900 65 350/ 17/ 19 1011.3F PORT WASHINGTON 0930 68 10/ 6/ 11 1012.5S ATWATER BUOY 0907 67 65 20/ 19/ 25 1011.0 6/ 7 MILWAUKEE LAKESH 0930 67 360/ 19/ 24 N/A S MID LAKE BUOY 0850 70 72 20/ 16/ 17 1008.9R 4/ 6 KENOSHA LAKESH 0900 68 360/ 19/ 23 1009.8 $$ TC - TEMPERATURE IN CELSIUS VSB - VISIBILITY IN STATUTE MILES WCI - WIND CHILL INDEX HX - HEAT INDEX ASUS43 KMKX 221011 RWRWI WISCONSIN REGIONAL WEATHER ROUNDUP NATIONAL WEATHER SERVICE MILWAUKEE/SULLIVAN WI 500 AM CDT SUN JUL 22 2018 NOTE: "FAIR" INDICATES FEW OR NO CLOUDS BELOW 12,000 FEET WITH NO SIGNIFICANT WEATHER AND/OR OBSTRUCTIONS TO VISIBILITY. WIZ001-002-006>008-014>016-023>028-221100- NORTHWEST WISCONSIN CITY SKY/WX TMP DP RH WIND PRES REMARKS SUPERIOR ARPT CLOUDY 61 58 91 NE3 30.12S ASHLAND CLOUDY 61 58 90 NE7 30.12S HAYWARD CLOUDY 61 59 93 N8 30.11S SIREN CLOUDY 62 57 83 E8 30.10S CUMBERLAND CLOUDY 61 55 82 NE5 30.09F RICE LAKE CLOUDY 62 58 86 NE7 30.10F CHETEK CLOUDY 62 58 88 NE5 30.09S LADYSMITH MOCLDY 60 57 91 N5 30.09F EAU CLAIRE CLOUDY 62 57 83 N7G17 30.05F MENOMONIE CLOUDY 62 58 86 NE7 30.07F NEW RICHMOND FAIR 59 58 96 NE3 30.09S OSCEOLA MOCLDY 61 59 92 N3 30.12R $$ WIZ003>005-009-010-017-018-221100- NORTH CENTRAL WISCONSIN CITY SKY/WX TMP DP RH WIND PRES REMARKS MANITOWISH WTR CLOUDY 57 57 100 N3 30.09S FOG ARBOR VITAE CLOUDY 62 60 93 N9 30.08R WOODRUFF CLOUDY 62 60 93 N9 30.08R RHINELANDER MOCLDY 63 59 87 N7 30.05F EAGLE RIVER CLOUDY 60 58 96 N10 30.06S LAND O LAKES CLOUDY 59 58 97 N8 30.09S FOG PHILLIPS CLOUDY 59 59 100 N8 30.08F TOMAHAWK CLOUDY 61 57 88 NW6 30.06S MEDFORD MOCLDY 58 56 94 N7 30.04F MERRILL CLOUDY 63 60 91 N6 30.04S $$ WIZ029-030-035-036-043>047-221100- CENTRAL WISCONSIN CITY SKY/WX TMP DP RH WIND PRES REMARKS WAUSAU FAIR 63 58 83 N7G17 30.00S MOSINEE CLOUDY 61 59 94 N10 30.02R MARSHFIELD CLOUDY 62 59 90 N9 30.02S STEVENS POINT CLOUDY 61 60 96 N6 30.00S WAUPACA CLOUDY 67 63 86 N7 29.96S WAUTOMA CLOUDY 66 61 84 N9 29.96F WISC RAPIDS MOCLDY 63 58 83 N8 30.01R CAMP DOUGLAS FAIR 61 61 99 NW6 30.00R $$ WIZ011>013-019>022-031-037>040-048>050-221100- NORTHEAST WISCONSIN CITY SKY/WX TMP DP RH WIND PRES REMARKS ANTIGO CLOUDY 61 59 93 N9 30.02S SHAWANO CLOUDY 67 62 83 N10 29.95S OCONTO CLOUDY 63 62 95 N9 29.94S STURGEON BAY LGT RAIN 64 63 96 N15G22 29.94R GREEN BAY CLOUDY 65 62 90 N16 29.92F MANITOWOC LGT RAIN 65 64 97 N9 29.90S APPLETON CLOUDY 63 63 100 N13G21 29.93R CLINTONVILLE CLOUDY 66 59 80 N7 29.96S OSHKOSH CLOUDY 65 63 93 N12 29.92S $$ WIZ032>034-041-042-053>061-221100- SOUTHWEST WISCONSIN CITY SKY/WX TMP DP RH WIND PRES REMARKS LA CROSSE FAIR 64 60 87 N12 30.01S SPARTA CLOUDY 59 57 94 N7 30.02S VIROQUA CLOUDY 62 61 98 N8 30.01S BOSCOBEL CLOUDY 68 61 78 VRB3 29.97R PRAIRIE DU CHI CLOUDY 66 59 76 N7 29.97F PLATTEVILLE CLOUDY 65 65 99 N10 29.96R $$ WIZ056-057-062-063-064-067-068-221100- SOUTH CENTRAL WISCONSIN CITY SKY/WX TMP DP RH WIND PRES REMARKS REEDSBURG CLOUDY 64 63 97 N10 29.97R BARABOO/DELLS CLOUDY 64 59 86 NW7 29.96S LONE ROCK CLOUDY 66 62 87 N16G28 29.95S MINERAL POINT CLOUDY 64 64 100 N8 29.96R MADISON CLOUDY 66 63 90 N14G22 29.92F MIDDLETON CLOUDY 67 63 88 N8 29.94S WATERTOWN LGT RAIN 65 65 100 N12 29.90S MONROE CLOUDY 65 64 94 N9 29.93R JANESVILLE CLOUDY 68 66 94 N9 29.89S $$ WIZ051-052-058>065-066-070>072-221100- SOUTHEAST WISCONSIN CITY SKY/WX TMP DP RH WIND PRES REMARKS MILWAUKEE LGT RAIN 68 66 93 N16G26 29.85S WAUKESHA CLOUDY 64 63 94 N8 29.89R MILWAUKEE/TIMM CLOUDY 64 61 88 N16G23 29.87S HAZE RACINE CLOUDY 67 66 97 N16G29 29.86R BURLINGTON CLOUDY 67 64 87 N9 29.87R KENOSHA CLOUDY 68 67 96 N10G22 29.85R FOND DU LAC CLOUDY 67 63 87 N15 29.92R SHEBOYGAN LGT RAIN 66 64 93 N9 29.88S FOG WEST BEND CLOUDY 64 64 100 N9 29.88S JUNEAU CLOUDY 64 63 96 NW9 29.92S FOG $$ LSZ147-162-221100- LAKE SUPERIOR STATION/POSITION TIME TEMP WIND PRES WAVE AIR SEA DIR/SP/G HT/PER (UTC) (F) (DEG/KT/KT) (MB) (FT/S) W MID LAKE BUOY 0950 49 44 350/ 8/ 8 1019.7S 1/ 4 DEVILS ISLAND 1000 61 30/ 12/ 12 1020.2R SAXON HARBOR 0940 62 50/ 12/ 14 1019.0F $$ LMZ867-665-643>646-221100- LAKE MICHIGAN STATION/POSITION TIME TEMP WIND PRES WAVE AIR SEA DIR/SP/G HT/PER (UTC) (F) (DEG/KT/KT) (MB) (FT/S) S GREEN BAY BUOY 1000 71 71 10/ 17/ 21 1013.5 N MID LAKE BUOY 0950 67 66 20/ 16/ 19 1012.0F 3/ 4 NORTHPORT PIER 0940 61 350/ 8/ 10 1014.2R KEWAUNEE LAKESHO 0942 65 360/ 8/ 16 1012.1R SHEBOYGAN LAKESH 1000 65 10/ 18/ 19 1011.4R PORT WASHINGTON 0930 68 10/ 6/ 11 1012.5S ATWATER BUOY 0907 67 65 20/ 19/ 25 1011.0 6/ 7 MILWAUKEE LAKESH 0950 67 10/ 18/ 20 N/A S MID LAKE BUOY 0950 71 72 30/ 16/ 17 1009.1R 4/ 6 KENOSHA LAKESH 1000 68 360/ 17/ 20 1009.8 $$ TC - TEMPERATURE IN CELSIUS VSB - VISIBILITY IN STATUTE MILES WCI - WIND CHILL INDEX HX - HEAT INDEX ASUS43 KMKX 221021 RWRWI WISCONSIN REGIONAL WEATHER ROUNDUP NATIONAL WEATHER SERVICE MILWAUKEE/SULLIVAN WI 500 AM CDT SUN JUL 22 2018 NOTE: "FAIR" INDICATES FEW OR NO CLOUDS BELOW 12,000 FEET WITH NO SIGNIFICANT WEATHER AND/OR OBSTRUCTIONS TO VISIBILITY. WIZ001-002-006>008-014>016-023>028-221100- NORTHWEST WISCONSIN CITY SKY/WX TMP DP RH WIND PRES REMARKS SUPERIOR ARPT CLOUDY 61 59 91 NE6 30.12S ASHLAND CLOUDY 61 58 90 NE7 30.12S HAYWARD CLOUDY 61 59 93 N8 30.11S SIREN CLOUDY 62 57 83 E8 30.10S CUMBERLAND CLOUDY 61 55 82 CALM 30.10R RICE LAKE CLOUDY 62 58 87 NE7 30.10S CHETEK CLOUDY 62 59 89 NE6 30.09R LADYSMITH CLOUDY 60 58 93 N5 30.10R EAU CLAIRE CLOUDY 62 57 83 N7G17 30.05F MENOMONIE CLOUDY 62 58 84 NE6 30.08R NEW RICHMOND FAIR 59 58 96 NE3 30.09S OSCEOLA MOCLDY 60 58 93 CALM 30.13R $$ WIZ003>005-009-010-017-018-221100- NORTH CENTRAL WISCONSIN CITY SKY/WX TMP DP RH WIND PRES REMARKS MANITOWISH WTR CLOUDY 57 57 100 N3 30.09F ARBOR VITAE CLOUDY 62 60 93 N9 30.08R WOODRUFF CLOUDY 62 60 93 N9 30.08R RHINELANDER MOCLDY 63 59 87 N7 30.05F EAGLE RIVER CLOUDY 60 58 95 N6 30.06S LAND O LAKES CLOUDY 58 58 97 N6 30.09S FOG PHILLIPS CLOUDY 59 59 100 NE7 30.09S TOMAHAWK CLOUDY 61 57 87 N6 30.06S MEDFORD CLOUDY 58 56 92 N7 30.05R MERRILL CLOUDY 63 60 91 N8 30.05R $$ WIZ029-030-035-036-043>047-221100- CENTRAL WISCONSIN CITY SKY/WX TMP DP RH WIND PRES REMARKS WAUSAU FAIR 63 58 83 N7G17 30.00S MOSINEE CLOUDY 61 59 94 N10 30.02R MARSHFIELD CLOUDY 62 59 90 N9 30.02S STEVENS POINT CLOUDY 61 60 96 N6 30.00S WAUPACA CLOUDY 67 64 87 N7 29.97S WAUTOMA CLOUDY 66 61 84 N9 29.96F WISC RAPIDS MOCLDY 63 58 83 N8 30.01R CAMP DOUGLAS MOCLDY 63 61 94 NW7 30.00R $$ WIZ011>013-019>022-031-037>040-048>050-221100- NORTHEAST WISCONSIN CITY SKY/WX TMP DP RH WIND PRES REMARKS ANTIGO CLOUDY 61 59 94 N8 30.02S SHAWANO CLOUDY 67 62 83 N12 29.95F OCONTO CLOUDY 63 62 95 N9 29.94S STURGEON BAY LGT RAIN 64 63 96 N15G22 29.94R GREEN BAY CLOUDY 65 62 90 N16 29.92F MANITOWOC LGT RAIN 65 64 97 N9 29.90S APPLETON CLOUDY 63 63 100 N13G21 29.93R CLINTONVILLE CLOUDY 66 59 80 N9 29.95F OSHKOSH CLOUDY 65 63 93 N12 29.92S $$ WIZ032>034-041-042-053>061-221100- SOUTHWEST WISCONSIN CITY SKY/WX TMP DP RH WIND PRES REMARKS LA CROSSE FAIR 64 60 87 N12 30.01S SPARTA CLOUDY 59 57 94 N7 30.02S VIROQUA CLOUDY 62 62 99 N9 30.01S BOSCOBEL CLOUDY 68 61 78 VRB3 29.97R PRAIRIE DU CHI CLOUDY 66 59 76 N7 29.97F PLATTEVILLE CLOUDY 65 65 99 N12 29.96S $$ WIZ056-057-062-063-064-067-068-221100- SOUTH CENTRAL WISCONSIN CITY SKY/WX TMP DP RH WIND PRES REMARKS REEDSBURG CLOUDY 63 62 96 N10 29.97S BARABOO/DELLS CLOUDY 64 59 86 NW7 29.96S LONE ROCK CLOUDY 66 62 87 N16G28 29.95S MINERAL POINT CLOUDY 64 64 100 N8 29.96R MADISON CLOUDY 65 63 93 N12 29.92F MIDDLETON CLOUDY 67 63 88 N8 29.94S WATERTOWN CLOUDY 65 65 100 N10 29.90S FOG MONROE CLOUDY 66 64 93 N10 29.93R JANESVILLE CLOUDY 68 66 94 N10G16 29.89S $$ WIZ051-052-058>065-066-070>072-221100- SOUTHEAST WISCONSIN CITY SKY/WX TMP DP RH WIND PRES REMARKS MILWAUKEE LGT RAIN 68 66 93 N16G26 29.85S WAUKESHA CLOUDY 63 63 100 N10G20 29.89S MILWAUKEE/TIMM RAIN 64 61 88 N8 29.88R RACINE LGT RAIN 67 66 97 N17G29 29.86R BURLINGTON CLOUDY 67 64 87 N9 29.87R KENOSHA CLOUDY 68 67 96 N10G22 29.85R FOND DU LAC CLOUDY 67 63 87 N15 29.92R SHEBOYGAN LGT RAIN 66 64 93 N9 29.88S FOG WEST BEND CLOUDY 64 64 100 N9 29.88S JUNEAU CLOUDY 64 63 95 N10G18 29.92S $$ LSZ147-162-221100- LAKE SUPERIOR STATION/POSITION TIME TEMP WIND PRES WAVE AIR SEA DIR/SP/G HT/PER (UTC) (F) (DEG/KT/KT) (MB) (FT/S) W MID LAKE BUOY 0950 49 44 350/ 8/ 8 1019.7S 1/ 4 DEVILS ISLAND 1000 61 30/ 12/ 12 1020.2R SAXON HARBOR 0940 62 50/ 12/ 14 1019.0F $$ LMZ867-665-643>646-221100- LAKE MICHIGAN STATION/POSITION TIME TEMP WIND PRES WAVE AIR SEA DIR/SP/G HT/PER (UTC) (F) (DEG/KT/KT) (MB) (FT/S) S GREEN BAY BUOY 1000 71 71 10/ 17/ 21 1013.5 N MID LAKE BUOY 1000 67 10/ 17/ 21 1011.9 NORTHPORT PIER 1000 61 350/ 8/ 11 1014.2 KEWAUNEE LAKESHO 0954 65 360/ 8/ 14 1012.3R SHEBOYGAN LAKESH 1000 65 10/ 18/ 19 1011.4R PORT WASHINGTON 0930 68 10/ 6/ 11 1012.5S ATWATER BUOY 0937 67 65 30/ 23/ 27 1011.1R 7/ 6 MILWAUKEE LAKESH 1000 67 10/ 19/ 23 N/A S MID LAKE BUOY 0950 71 72 30/ 16/ 17 1009.1R 4/ 6 KENOSHA LAKESH 1000 68 360/ 17/ 20 1009.8 $$ TC - TEMPERATURE IN CELSIUS VSB - VISIBILITY IN STATUTE MILES WCI - WIND CHILL INDEX HX - HEAT INDEX